User: anonymous   Login
Location: Asni�res
(49.1337°N, 2.3555°E)
Time: 02:22:57
(UTC+00:00)
Language:

Cosmos 1844 - Orbit

View from above orbital plane
View from above orbital plane
View from above satellite
View from above satellite

Ground track
Ground track

The orbit data is extracted from the following two-line orbital elements,

1 17973U 87041A   22018.61207921 -.00000107  00000-0 -30748-4 0  9994
2 17973  70.9012 340.2149 0028875 133.9116 226.4396 14.14142135790133
Epoch (UTC): 18 January 2022 14:41:23
Eccentricity: 0.0028875
inclination: 70.9012°
perigee height: 824 km
apogee height: 866 km
right ascension of ascending node: 340.2149°
argument of perigee: 133.9116°
revolutions per day: 14.14142135
mean anomaly at epoch: 226.4396°
orbit number at epoch: 79013

The dashed part of the orbit path shows where the satellite is in the earth's shadow,  

DLR